{"data":{"norad_id":34111,"epoch":"2026-09-19T09:57:02.297952Z","epoch_age_seconds":115692,"freshness":"FRESH","line1":"1 34111U 09009A   26262.41460993 -.00000255  00000+0  00000+0 0  9993","line2":"2 34111   0.0169 206.4777 0002518 327.1448 296.4136  1.00270939 47199","mean_motion":1.00270939,"eccentricity":0.0002518,"inclination_deg":0.0169,"raan_deg":206.4777,"arg_perigee_deg":327.1448,"mean_anomaly_deg":296.4136,"bstar":0,"rev_number":4719,"period_min":1436.1090205807,"perigee_km":35776.214988143,"apogee_km":35797.449266595,"semimajor_km":42164.969127369,"source":"CELESTRAK","updated_at":"2026-09-20T09:00:35.135532Z"}}